DECAYED

DMSP 5D-2 F6 DEB, 40914 (Decayed)

Orbit data source: Space-Track

DMSP 5D-2 F6 DEB, 40914 was space debris in SSO originally from a launch on Tue, 21 Dec 1982 UTC launched from the Air Force Western Test Range (AFWTR). Debris objects in space refer to the collection of defunct objects orbiting the Earth. Examples of debris include non-operational satellites, rocket bodies, and fragments generated from explosions, collisions, or faulty payload assembly.

Loading next visibility...
Identifier
40914, 1982-118G
Orbit
Decayed
Country
Flag of USUS
Related business
Manufacturer
Unknown
Mission
Decayed spacecraft
Bus & Motor
Unknown
Mass
Unknown
Launch date (UTC)
1982-12-21 (44 years ago)
Launch vehicle
Unknown
Launch site
Air Force Western Test Range (AFWTR)
Object type
Payload
Rocket body
Debris
Shape & HBR
Unknown shape, 0.060 m
Radar Cross Section
Medium (>0.1 m² and <1 m²)

Expand to show TLE details & history
Last TLE update: 7 months ago

TLE from 7 months ago
0 DMSP 5D-2 F6 DEB
1 40914U 82118G   26064.50131404  .06653275  70447-1  21772-1 0  9991
2 40914  98.3814 320.7074 0011862 145.7680 214.4359 15.95339111520884
Epoch: 2026-03-05T12:01Z
TLE epoch observation values (Epoch: 2026-03-05T12:01:53.533Z)
Latitude
-0.00006°
Longitude
-23.01641°
Altitude
297.056 km
Speed
7.726 km/s
True Right ascension
21h 22m 49s
True Declination
0° 00' 00"
Sunlit
Object was in daylight at epoch
Visualization orbit readout
Latitude
Unknown
Longitude
Unknown
Altitude
Unknown
Speed
Unknown
Apparent Right ascension
Unknown
Apparent Declination
Unknown
Sunlit
N/A
Visualization observer readout
Local Sidereal Time
23:08:35
Azimuth
Unknown
Elevation
Unknown
Doppler factor
Unknown
Orbital elements
Apogee altitude
292.185 km
Perigee altitude
276.379 km
Semi-major axis
6,662.419 km
Eccentricity
0.00119
Inclination
98.3814°
RAAN
320.7074°
Arg. of periapsis
145.768°
True anomaly
214.35913°
Mean anomaly
214.4359°
Eccentric anomaly
214.3975°
Mean motion
3.99112 °/min
Orbital period
90.2 mins
BSTAR
0.021772
Loading maneuver chart data...
Computing Atmospheric mass density...
Loading historical data...
Loading historical data...
Loading historical data...
Loading historical data...
Loading historical data...
Loading historical data...
Loading historical data...

Documentation

Showing up to 5 results
|